Volver al catálogo

QIANFAN-136

ActivoComunicacionesPO
NORAD 69082·PAYLOAD·🇨🇳 China

Lanzado May 12, 2026 desde Taiyuan Satellite Launch Center

Loading…

Próximos Pases (próximas 24 horas)

TLE

ActualizadoSource: Space-Track

Época: Sep 14, 2026, 22:22 UTC

1 69082U 26104K   26257.93234341  .00000120  00000-0  16784-3 0  9991
2 69082  88.9911 332.3334 0001979 113.1591 246.9768 13.51031664 17269

Sigue QIANFAN-136 en tiempo real con AllMySat

Download on the App Store